User: anonymous   Login
Location: Caltech
(34.1382°N, 118.1253°W)
Time: 16:01:08
(UTC-07:00)
Language:

CZ-2C R/B - Orbit

View from above orbital plane
View from above orbital plane
View from above satellite
View from above satellite

Ground track
Ground track

The orbit data is extracted from the following two-line orbital elements,

1 36089U 09061B   16209.12706365  .00000008  00000-0  13341-4 0  9994
2 36089  98.0511 219.4422 0081342 327.7159  71.6018 14.49588134354617
Epoch (UTC): 27 July 2016 03:02:58
Eccentricity: 0.0081342
inclination: 98.0511°
perigee height: 669 km
apogee height: 785 km
right ascension of ascending node: 219.4422°
argument of perigee: 327.7159°
revolutions per day: 14.49588134
mean anomaly at epoch: 71.6018°
orbit number at epoch: 35461

The dashed part of the orbit path shows where the satellite is in the earth's shadow,  

DLR